KY4EF Weather Reports


Display with metric or nautical units.
time (UTC)temp
F
wind
direction
speed
MPH
gust
MPH
rain 1hr
in
rain 24hr
in
rain mn
in
humidity
%
barometer
mb
20260906094902 65 276 0.0 0.0 0.00 0.00 0.00 99 1013.9
20260906094356 65 289 0.0 0.0 0.00 0.00 0.00 99 1014.0
20260906093847 65 289 0.0 0.0 0.00 0.00 0.00 99 1014.1
20260906093343 65 289 0.0 0.0 0.00 0.00 0.00 99 1014.2
20260906092837 65 289 0.0 0.0 0.00 0.00 0.00 99 1014.1
20260906092331 65 289 0.0 0.0 0.00 0.00 0.00 99 1014.2
20260906091827 65 284 0.0 0.0 0.00 0.00 0.00 99 1014.0
20260906091323 65 285 0.0 0.0 0.00 0.00 0.00 99 1013.9
20260906090814 65 284 0.0 0.0 0.00 0.00 0.00 99 1014.0
20260906090312 66 272 0.0 0.0 0.00 0.00 0.00 99 1013.9
20260906085807 66 260 0.0 0.0 0.00 0.00 0.00 99 1013.9
20260906085307 65 260 1.0 1.0 0.00 0.00 0.00 99 1013.9
20260906084801 65 300 0.0 0.0 0.00 0.00 0.00 99 1014.0
20260906084301 65 300 0.0 0.0 0.00 0.00 0.00 99 1014.0
20260906083755 66 300 0.0 0.0 0.00 0.00 0.00 99 1014.1
20260906083251 65 299 0.0 0.0 0.00 0.00 0.00 99 1014.0
20260906082745 66 299 0.0 0.0 0.00 0.00 0.00 99 1014.1
20260906082241 66 299 0.0 0.0 0.00 0.00 0.00 99 1013.9
20260906081737 66 299 0.0 0.0 0.00 0.00 0.00 99 1014.1
20260906081231 66 299 0.0 0.0 0.00 0.00 0.00 99 1013.9
20260906080727 66 299 0.0 0.0 0.00 0.00 0.00 99 1014.1
20260906080224 66 299 0.0 0.0 0.00 0.00 0.00 99 1014.2
20260906075718 66 299 0.0 0.0 0.00 0.00 0.00 99 1014.0
20260906075212 66 299 0.0 0.0 0.00 0.00 0.00 99 1014.1
20260906074708 66 301 0.0 0.0 0.00 0.00 0.00 99 1014.1
20260906074207 66 308 0.0 0.0 0.00 0.00 0.00 99 1013.9
20260906073702 66 343 0.0 0.0 0.00 0.00 0.00 99 1013.8
20260906073157 66 343 0.0 1.0 0.00 0.00 0.00 99 1013.9
20260906072652 66 343 0.0 0.0 0.00 0.00 0.00 99 1013.8
20260906072148 66 343 0.0 0.0 0.00 0.00 0.00 99 1013.5
20260906071644 66 343 0.0 0.0 0.00 0.00 0.00 99 1013.4
20260906071143 66 343 0.0 1.0 0.00 0.00 0.00 99 1013.5
20260906070640 65 343 0.0 0.0 0.00 0.00 0.00 99 1013.8
20260906070136 65 343 0.0 0.0 0.00 0.00 0.00 99 1013.6
20260906065635 66 60 0.0 0.0 0.00 0.00 0.00 99 1013.5
20260906065131 66 59 0.0 0.0 0.00 0.00 0.00 99 1014.0
20260906064626 66 74 1.0 1.0 0.00 0.00 0.00 99 1014.0
20260906064121 65 189 1.0 1.0 0.00 0.00 0.00 99 1014.2
20260906063616 65 298 0.0 0.0 0.00 0.00 0.00 99 1014.1
20260906063112 66 299 0.0 0.0 0.00 0.00 0.00 99 1014.2
20260906062608 66 226 0.0 0.0 0.00 0.00 0.00 99 1014.1
20260906062106 66 222 1.0 1.0 0.00 0.00 0.00 99 1014.2
20260906061603 66 271 0.0 0.0 0.00 0.00 0.00 99 1014.2
20260906061102 66 285 0.0 0.0 0.00 0.00 0.00 99 1014.2
20260906060559 66 286 0.0 0.0 0.00 0.00 0.00 99 1014.1
20260906060056 66 286 0.0 1.0 0.00 0.00 0.00 99 1014.2
20260906055552 66 286 0.0 0.0 0.00 0.00 0.00 99 1014.2
20260906055046 66 288 0.0 0.0 0.00 0.00 0.00 99 1014.2
20260906054541 66 288 0.0 0.0 0.00 0.00 0.00 99 1014.3
20260906054037 66 288 0.0 0.0 0.00 0.00 0.00 99 1014.3
20260906053533 66 288 0.0 0.0 0.00 0.00 0.00 99 1014.6
20260906053028 66 288 0.0 0.0 0.00 0.00 0.00 99 1014.8
20260906052524 66 285 0.0 0.0 0.00 0.00 0.00 99 1014.9
20260906052021 66 285 0.0 0.0 0.00 0.00 0.00 99 1014.9
20260906051516 66 289 0.0 0.0 0.00 0.00 0.00 99 1014.9
20260906051011 67 273 0.0 0.0 0.00 0.00 0.00 99 1014.8
20260906050506 67 277 0.0 0.0 0.00 0.00 0.00 99 1014.8
20260906050000 67 256 0.0 0.0 0.00 0.00 0.00 99 1015.0
20260906045459 67 256 0.0 0.0 0.00 0.00 0.00 99 1015.0
20260906044955 67 256 0.0 0.0 0.00 0.00 0.00 99 1015.3
20260906044450 67 272 0.0 0.0 0.00 0.00 0.00 99 1015.3
20260906043946 67 274 0.0 0.0 0.00 0.00 0.00 99 1015.0
20260906043441 67 274 0.0 0.0 0.00 0.00 0.00 99 1015.0
20260906042937 67 296 0.0 0.0 0.00 0.00 0.00 99 1015.0
20260906042436 67 290 0.0 0.0 0.00 0.00 0.00 99 1015.2
20260906041931 67 290 0.0 0.0 0.00 0.00 0.00 99 1015.1
20260906041427 67 290 0.0 0.0 0.00 0.00 0.00 99 1015.2
20260906040926 67 290 0.0 0.0 0.00 0.00 0.00 99 1015.1
20260906040421 67 187 0.0 0.0 0.00 0.00 0.00 99 1015.1
20260906035911 67 187 0.0 0.0 0.00 0.03 0.03 99 1015.1
20260906035406 67 187 0.0 0.0 0.00 0.03 0.03 99 1015.1
20260906034902 67 187 0.0 0.0 0.00 0.03 0.03 99 1015.2
20260906034356 67 186 0.0 0.0 0.00 0.03 0.03 99 1015.1
20260906033852 68 179 0.0 0.0 0.00 0.03 0.03 99 1015.2
20260906033352 68 179 0.0 0.0 0.00 0.03 0.03 99 1014.9
20260906032848 68 181 1.0 1.0 0.00 0.03 0.03 99 1015.1
20260906032344 68 197 0.0 0.0 0.00 0.03 0.03 99 1015.0
20260906031839 68 196 1.0 1.0 0.00 0.03 0.03 99 1015.3
20260906031334 68 197 0.0 0.0 0.00 0.03 0.03 99 1015.0
20260906030833 68 197 0.0 0.0 0.00 0.03 0.03 99 1015.1
20260906030329 68 200 0.0 0.0 0.00 0.03 0.03 99 1014.9
20260906025823 68 200 0.0 0.0 0.00 0.03 0.03 99 1014.9
20260906025317 68 200 0.0 0.0 0.00 0.03 0.03 99 1014.8
20260906024816 68 201 0.0 0.0 0.00 0.03 0.03 99 1014.7
20260906024315 68 201 0.0 0.0 0.00 0.03 0.03 99 1014.7
20260906023812 68 201 0.0 0.0 0.00 0.03 0.03 99 1014.7
20260906023307 68 201 0.0 0.0 0.00 0.03 0.03 99 1015.0
20260906022803 68 201 0.0 0.0 0.00 0.03 0.03 99 1014.7
20260906022257 68 201 0.0 0.0 0.00 0.03 0.03 99 1014.7
20260906021753 69 201 0.0 0.0 0.00 0.03 0.03 99 1014.7
20260906021252 68 202 0.0 0.0 0.00 0.03 0.03 99 1014.8
20260906020747 69 202 0.0 0.0 0.00 0.03 0.03 99 1014.7
20260906020247 69 202 0.0 0.0 0.00 0.03 0.03 99 1014.7
20260906015741 69 202 0.0 0.0 0.00 0.03 0.03 99 1014.5
20260906015240 69 202 0.0 0.0 0.00 0.03 0.03 99 1014.7
20260906014734 69 202 0.0 0.0 0.00 0.03 0.03 99 1014.4
20260906014230 69 202 0.0 0.0 0.00 0.03 0.03 99 1014.4
20260906013726 69 202 0.0 0.0 0.00 0.03 0.03 99 1014.3
20260906013226 69 202 0.0 0.0 0.00 0.03 0.03 99 1014.0
20260906012721 69 201 1.0 1.0 0.00 0.03 0.03 99 1014.3
20260906012216 69 204 0.0 0.0 0.00 0.03 0.03 99 1014.5
20260906011711 69 204 0.0 0.0 0.00 0.03 0.03 99 1014.3
20260906011206 69 210 0.0 0.0 0.00 0.03 0.03 99 1014.5
20260906010702 69 216 0.0 0.0 0.00 0.03 0.03 99 1014.1
20260906010158 70 215 0.0 0.0 0.00 0.03 0.03 99 1014.1
20260906005657 70 215 0.0 0.0 0.00 0.03 0.03 99 1014.0
20260906005157 70 234 1.0 1.0 0.00 0.03 0.03 99 1014.2
20260906004655 70 121 0.0 0.0 0.00 0.03 0.03 99 1014.3
20260906004151 70 121 0.0 0.0 0.00 0.03 0.03 99 1014.3
20260906003646 70 121 0.0 0.0 0.00 0.03 0.03 99 1014.2
20260906003142 70 121 0.0 0.0 0.00 0.03 0.03 99 1014.2
20260906002636 71 122 1.0 1.0 0.00 0.03 0.03 99 1014.0
20260906002131 71 135 0.0 0.0 0.00 0.03 0.03 99 1014.2
20260906001626 71 139 0.0 0.0 0.00 0.03 0.03 99 1014.1
20260906001126 71 139 0.0 0.0 0.00 0.03 0.03 98 1014.0
20260906000622 71 139 0.0 0.0 0.00 0.03 0.03 99 1013.9
20260906000118 72 202 1.0 1.0 0.00 0.03 0.03 98 1014.0
20260905235616 72 254 0.0 0.0 0.00 0.03 0.03 97 1014.0
20260905235112 73 254 0.0 0.0 0.00 0.03 0.03 96 1014.1
20260905234607 73 254 0.0 0.0 0.00 0.03 0.03 96 1014.0
20260905234101 73 258 0.0 0.0 0.00 0.03 0.03 97 1013.9
20260905233556 73 258 0.0 0.0 0.00 0.03 0.03 96 1013.9
20260905233056 73 239 0.0 0.0 0.00 0.03 0.03 96 1013.8
20260905232551 73 161 0.0 0.0 0.00 0.03 0.03 96 1013.8
20260905232047 73 161 0.0 0.0 0.00 0.03 0.03 96 1013.6
20260905231542 73 160 1.0 1.0 0.00 0.03 0.03 95 1013.5
20260905231038 73 161 0.0 0.0 0.00 0.03 0.03 96 1013.5
20260905230537 73 161 1.0 1.0 0.00 0.03 0.03 95 1013.4
20260905230036 73 162 1.0 1.0 0.00 0.03 0.03 95 1013.6
20260905225531 74 165 0.0 0.0 0.00 0.03 0.03 94 1013.8
20260905225026 74 161 0.0 1.0 0.00 0.03 0.03 94 1014.0
20260905224521 74 36 0.0 0.0 0.00 0.03 0.03 93 1013.9
20260905224020 74 203 0.0 0.0 0.00 0.03 0.03 93 1014.0
20260905223519 74 203 0.0 0.0 0.00 0.03 0.03 96 1014.1
20260905223014 74 203 0.0 0.0 0.00 0.03 0.03 96 1014.0
20260905222513 74 209 1.0 1.0 0.00 0.03 0.03 95 1014.0
20260905222009 74 240 0.0 0.0 0.00 0.03 0.03 92 1014.1
20260905221505 74 336 0.0 0.0 0.00 0.03 0.03 91 1013.9
20260905221001 75 254 0.0 0.0 0.00 0.03 0.03 92 1013.9
20260905220457 75 254 0.0 0.0 0.00 0.03 0.03 91 1013.6
20260905215956 75 254 0.0 0.0 0.00 0.03 0.03 90 1014.0
20260905215452 75 254 0.0 0.0 0.00 0.03 0.03 93 1014.1
20260905214948 74 254 0.0 0.0 0.00 0.03 0.03 94 1013.9
20260905214443 75 255 1.0 1.0 0.00 0.03 0.03 92 1014.1
20260905213937 74 257 0.0 0.0 0.00 0.03 0.03 93 1014.1
20260905213434 73 264 0.0 0.0 0.00 0.03 0.03 94 1014.0
20260905212929 73 219 0.0 0.0 0.00 0.03 0.03 95 1014.2
20260905212424 73 220 0.0 1.0 0.00 0.03 0.03 93 1014.0
20260905211923 73 220 0.0 0.0 0.00 0.03 0.03 95 1014.2
20260905211419 72 219 0.0 0.0 0.00 0.03 0.03 94 1014.3
20260905210915 74 219 1.0 1.0 0.00 0.03 0.03 92 1014.2
20260905210414 75 287 0.0 0.0 0.00 0.03 0.03 88 1014.4
20260905205914 75 288 0.0 0.0 0.00 0.03 0.03 91 1014.8
20260905205409 74 296 0.0 0.0 0.00 0.03 0.03 92 1014.5
20260905204908 74 282 0.0 0.0 0.00 0.03 0.03 94 1014.7
20260905204404 73 280 0.0 1.0 0.00 0.03 0.03 95 1015.0
20260905203857 72 284 0.0 1.0 0.00 0.03 0.03 96 1014.6
20260905203353 71 250 0.0 0.0 0.00 0.03 0.03 98 1014.6
20260905202848 71 195 0.0 0.0 0.00 0.03 0.03 98 1014.4
20260905202343 71 196 1.0 1.0 0.00 0.03 0.03 99 1014.6
20260905201839 71 195 1.0 1.0 0.00 0.03 0.03 97 1014.9
20260905201334 71 236 0.0 0.0 0.00 0.03 0.03 96 1015.0
20260905200828 71 188 1.0 1.0 0.00 0.03 0.03 96 1015.0
20260905200326 71 180 1.0 1.0 0.00 0.03 0.03 96 1015.0
20260905195821 72 172 1.0 1.0 0.00 0.03 0.03 96 1015.1
20260905195317 72 210 0.0 0.0 0.00 0.03 0.03 98 1015.1
20260905194813 72 206 1.0 1.0 0.00 0.03 0.03 98 1014.8
20260905194307 72 105 1.0 1.0 0.05 0.03 0.03 95 1014.7
20260905193806 73 132 2.0 2.0 0.05 0.03 0.03 93 1014.6
20260905193301 75 275 0.0 1.0 0.00 0.02 0.02 89 1014.6
20260905192757 76 204 1.0 1.0 0.12 0.02 0.02 91 1014.7
20260905192253 78 289 2.0 2.0 0.12 0.02 0.02 88 1014.3
20260905191752 81 322 3.0 3.0 0.00 0.00 0.00 81 1014.6
20260905191250 84 311 6.0 7.0 0.00 0.00 0.00 75 1014.6
20260905190749 86 286 3.0 4.0 0.00 0.00 0.00 68 1014.5
20260905190249 90 142 2.0 3.0 0.00 0.00 0.00 63 1014.7
20260905185748 93 260 1.0 1.0 0.00 0.00 0.00 58 1014.6
20260905185242 96 296 4.0 4.0 0.00 0.00 0.00 55 1014.4
20260905184737 96 274 1.0 1.0 0.00 0.00 0.00 53 1014.3
20260905184236 97 301 0.0 0.0 0.00 0.00 0.00 51 1014.1
20260905183735 94 279 0.0 0.0 0.00 0.00 0.00 58 1013.8
20260905183231 95 258 0.0 0.0 0.00 0.00 0.00 57 1013.8
20260905182725 95 358 1.0 2.0 0.00 0.00 0.00 56 1014.0
20260905182225 98 294 1.0 1.0 0.00 0.00 0.00 52 1014.2
20260905181720 96 202 1.0 1.0 0.00 0.00 0.00 55 1014.1
20260905181219 94 259 1.0 2.0 0.00 0.00 0.00 60 1014.2
20260905180714 93 217 1.0 1.0 0.00 0.00 0.00 63 1014.6
20260905180209 95 268 0.0 0.0 0.00 0.00 0.00 56 1014.6
20260905175708 97 275 0.0 1.0 0.00 0.00 0.00 54 1014.7
20260905175203 96 243 0.0 1.0 0.00 0.00 0.00 56 1014.9
20260905174658 93 269 0.0 1.0 0.00 0.00 0.00 60 1015.1
20260905174155 94 287 2.0 3.0 0.00 0.00 0.00 58 1015.1
20260905173651 96 311 1.0 2.0 0.00 0.00 0.00 57 1014.9
20260905173146 96 285 2.0 2.0 0.00 0.00 0.00 56 1014.9
20260905172645 97 307 2.0 2.0 0.00 0.00 0.00 54 1014.9
20260905172145 99 277 1.0 2.0 0.00 0.00 0.00 53 1015.1
20260905171641 97 252 0.0 0.0 0.00 0.00 0.00 53 1015.2
20260905171137 96 273 1.0 1.0 0.00 0.00 0.00 53 1015.2
20260905170633 94 289 1.0 1.0 0.00 0.00 0.00 57 1015.1
20260905170129 94 318 2.0 3.0 0.00 0.00 0.00 56 1015.5
20260905165623 97 195 1.0 1.0 0.00 0.00 0.00 51 1015.3
20260905165118 97 244 0.0 1.0 0.00 0.00 0.00 53 1015.2
20260905164613 95 245 1.0 1.0 0.00 0.00 0.00 54 1015.3
20260905164107 93 237 0.0 1.0 0.00 0.00 0.00 55 1015.8
20260905163604 93 197 1.0 1.0 0.00 0.00 0.00 62 1015.7
20260905163100 91 304 1.0 1.0 0.00 0.00 0.00 57 1015.7
20260905162556 91 43 0.0 1.0 0.00 0.00 0.00 58 1016.0
20260905162054 93 262 0.0 1.0 0.00 0.00 0.00 56 1015.9
20260905161549 92 269 0.0 1.0 0.00 0.00 0.00 59 1016.0
20260905161047 91 329 0.0 1.0 0.00 0.00 0.00 62 1016.2
20260905160546 89 191 1.0 1.0 0.00 0.00 0.00 72 1015.9
20260905160045 89 147 1.0 1.0 0.00 0.00 0.00 73 1015.8
20260905155540 88 176 1.0 1.0 0.00 0.00 0.00 73 1015.9
20260905155038 87 154 1.0 1.0 0.00 0.00 0.00 73 1015.7
20260905154534 87 56 1.0 1.0 0.00 0.00 0.00 71 1015.9
20260905154029 84 189 1.0 1.0 0.00 0.00 0.00 74 1015.9
20260905153525 83 140 1.0 2.0 0.00 0.00 0.00 82 1016.1
20260905153025 84 159 1.0 1.0 0.00 0.00 0.00 79 1016.2
20260905152520 85 198 1.0 1.0 0.00 0.00 0.00 76 1016.2
20260905152015 83 166 1.0 1.0 0.00 0.00 0.00 77 1016.3
20260905151509 84 146 1.0 1.0 0.00 0.00 0.00 81 1016.1
20260905151004 83 150 1.0 1.0 0.00 0.00 0.00 80 1016.2
20260905150454 81 150 1.0 1.0 0.00 0.00 0.00 82 1016.4
20260905145951 82 154 0.0 0.0 0.00 0.00 0.00 79 1016.3
20260905145446 80 196 0.0 1.0 0.00 0.00 0.00 83 1016.5
20260905144945 79 196 1.0 1.0 0.00 0.00 0.00 85 1016.5
20260905144441 78 196 0.0 1.0 0.00 0.00 0.00 89 1016.3
20260905143939 78 196 1.0 1.0 0.00 0.00 0.00 89 1016.2
20260905143438 79 212 0.0 0.0 0.00 0.00 0.00 84 1016.5
20260905142933 78 214 0.0 0.0 0.00 0.00 0.00 88 1016.6
20260905142432 78 217 0.0 0.0 0.00 0.00 0.00 88 1016.5
20260905141928 77 217 0.0 0.0 0.00 0.00 0.00 89 1016.5
20260905141422 75 217 0.0 0.0 0.00 0.00 0.00 93 1016.5
20260905140919 73 219 0.0 0.0 0.00 0.00 0.00 97 1016.6
20260905140414 72 246 0.0 0.0 0.00 0.00 0.00 99 1016.9
20260905135912 70 245 0.0 1.0 0.00 0.00 0.00 99 1016.6
20260905135408 70 255 0.0 0.0 0.00 0.00 0.00 99 1016.8
20260905134904 69 258 0.0 1.0 0.00 0.00 0.00 99 1016.9
20260905134403 69 246 0.0 1.0 0.00 0.00 0.00 99 1017.1
20260905133856 69 246 1.0 1.0 0.00 0.00 0.00 99 1016.8
20260905133352 69 286 0.0 0.0 0.00 0.00 0.00 99 1016.9
20260905132851 69 286 0.0 0.0 0.00 0.00 0.00 99 1017.2
20260905132347 68 286 0.0 0.0 0.00 0.00 0.00 99 1017.1
20260905131846 68 286 0.0 0.0 0.00 0.00 0.00 99 1016.9
20260905131342 68 286 0.0 0.0 0.00 0.00 0.00 99 1017.1
20260905130837 68 286 0.0 0.0 0.00 0.00 0.00 99 1017.2
20260905130335 67 286 0.0 0.0 0.00 0.00 0.00 99 1017.3
20260905125831 67 286 0.0 0.0 0.00 0.00 0.00 99 1017.1
20260905125326 67 286 0.0 0.0 0.00 0.00 0.00 99 1017.4
20260905124823 67 286 0.0 0.0 0.00 0.00 0.00 99 1017.2
20260905124319 66 286 0.0 0.0 0.00 0.00 0.00 99 1017.3
20260905123819 66 286 0.0 0.0 0.00 0.00 0.00 99 1017.2
20260905123316 66 286 0.0 0.0 0.00 0.00 0.00 99 1017.2
20260905122815 66 286 0.0 0.0 0.00 0.00 0.00 99 1017.2
20260905122315 66 286 0.0 0.0 0.00 0.00 0.00 99 1016.7
20260905121810 65 286 0.0 0.0 0.00 0.00 0.00 99 1016.7
20260905121307 65 286 0.0 0.0 0.00 0.00 0.00 99 1016.9
20260905120805 65 286 0.0 0.0 0.00 0.00 0.00 99 1017.1
20260905120259 65 286 0.0 0.0 0.00 0.00 0.00 99 1016.9
20260905115754 65 286 0.0 0.0 0.00 0.00 0.00 99 1016.8
20260905115248 65 286 0.0 0.0 0.00 0.00 0.00 99 1016.8
20260905114748 65 286 0.0 0.0 0.00 0.00 0.00 99 1016.5
20260905114247 65 286 0.0 0.0 0.00 0.00 0.00 99 1016.9
20260905113746 65 286 0.0 0.0 0.00 0.00 0.00 99 1016.8
20260905113242 65 287 0.0 0.0 0.00 0.00 0.00 99 1016.6
20260905112737 65 287 0.0 0.0 0.00 0.00 0.00 99 1016.5
20260905112232 65 290 0.0 0.0 0.00 0.00 0.00 99 1016.6
20260905111727 65 290 0.0 0.0 0.00 0.00 0.00 99 1016.4
20260905111227 65 291 0.0 0.0 0.00 0.00 0.00 99 1016.3
20260905110726 65 290 0.0 0.0 0.00 0.00 0.00 99 1016.4
20260905110220 65 290 0.0 0.0 0.00 0.00 0.00 99 1016.1
20260905105716 65 290 0.0 0.0 0.00 0.00 0.00 99 1015.9
20260905105215 65 290 0.0 0.0 0.00 0.00 0.00 99 1016.1
20260905104710 65 290 0.0 0.0 0.00 0.00 0.00 99 1015.9
20260905104206 65 291 0.0 0.0 0.00 0.00 0.00 99 1016.2
20260905103701 65 291 0.0 0.0 0.00 0.00 0.00 99 1015.9
20260905103156 65 291 0.0 0.0 0.00 0.00 0.00 99 1016.0
20260905102652 65 290 0.0 0.0 0.00 0.00 0.00 99 1016.0
20260905102148 65 290 0.0 0.0 0.00 0.00 0.00 99 1015.9
20260905101647 65 291 0.0 0.0 0.00 0.00 0.00 99 1015.8
20260905101145 65 290 0.0 0.0 0.00 0.00 0.00 99 1015.9
20260905100642 65 290 0.0 0.0 0.00 0.00 0.00 99 1016.0
20260905100137 66 290 0.0 0.0 0.00 0.00 0.00 99 1015.9
20260905095630 65 290 0.0 0.0 0.00 0.00 0.00 99 1015.8